星链-32345 (STARLINK-32345)

导读

STARLINK-32345是美国太空探索技术公司(SpaceX)星链互联网卫星星座的一员,于2024年8月31日发射入轨。星链项目旨在构建全球卫星互联网星座,为全球偏远地区、海洋空域等提供高速互联网接入服务。作为低轨卫星,该卫星加入星座后,进一步提升了星链系统的全球覆盖能力和服务容量,推进SpaceX星链组网进程。

Basic Information
目录编号:
60920
目录名称:
STARLINK-32345
国际标识:
2024-154T
轨道中心:
EARTH
卫星名称:
星链-32345
卫星全名:
星链-32345 (STARLINK-32345)
卫星状态:
在轨 (已飞行734 天)
发射日期:
2024-08-31 UTC
国别 :
美国 (US)
星等 :
--
Orbit Information
数据来源 国际轨道数据
星历时间: 2026-09-03T16:16:11+0800
1天前
查看轨道信息
半长轴: 6840.854km
偏心率: 0.0001304
轨道倾角: 53.159°
近地点辐角 85.734°
升交点赤经 178.023°
平近点角 274.382°
近地点: 461.824km
远地点: 463.61km
周期: 93.848分钟
每日圈数: 15.343955
Detailed Information
固有亮度:
5
最大亮度:
2.5
卫星平台:
Starlink V1.0
覆盖范围:
全球
运营商:
太空探索技术公司
运营商所在国:
美国
制造商(研发单位):
太空探索技术公司
制造商所在国:
美国
使用方式:
暂无
Satellite Introduction
Starlink 计划是 SpaceX 推出的全球卫星互联网项目,通过发射低轨道卫星,为全球尤其是偏远地区提供高速、低延迟的互联网服务。自 2019 年起,Starlink 已部署数千颗卫星,旨在缩小全球数字鸿沟,推动互联网普及。该项目还为军事、航空等行业提供通信支持,带来广泛经济效益。
2D Orbit Map
3D Orbit Map
Orbit Altitude Analysis Chart
Orbit Inclination Analysis Chart
Orbit Comprehensive Analysis Chart
View Comprehensive Chart
Conjunction Data List
Event ID Objects TCA Miss Dist (km) Collision Risk Probability Collision Risk Index (CRI) Action
CDM_260904-112604-763006-092021
2026-09-04T
11:26:49+0000
1.356 km
极远距离
7.581967E-6 低风险 0.53
CDM_260905-201705-284706-092021
2026-09-05T
20:17:39+0000
2.888 km
极远距离
1.194329E-6 低风险 0.37